Home   Weather   Wright   Past weeks

Flag for USA Past Weather in Wright, Florida, USA — Yesterday and Last 2 Weeks

Now
83 °F

Overcast.


Feels Like: 92 °F
Forecast: 76 / 85 °F
Wind: 8 mph from Southeast

Location: Hurlburt Field

Current Time: Aug 31, 2016 at 10:41:46 PM

Latest Report: Aug 31, 2016 at 9:58 PM


Visibility: 10 mi

Pressure: 29.84 "Hg

Humidity: 80%

Dew Point: 76 °F

Location of WrightLocation

Past Weather in Wright — Graph

°F

Wright Temperature Yesterday

Maximum temperature yesterday: 92 °F (at 3:58 PM)
Minimum temperature yesterday: 75 °F (at 6:58 AM)
Average temperature yesterday: 84 °F

High & Low Weather Summary for the Past Weeks

 TemperatureHumidityPressure
High93 °F (Aug 29, 2:58 PM)98% (Aug 28, 12:58 AM)30.20 "Hg (Aug 28, 12:58 AM)
Low72 °F (Aug 26, 3:58 AM)27% (Aug 19, 12:55 AM)29.78 "Hg (Aug 31, 5:58 PM)
Average83 °F74%30.02 "Hg
* Reported Aug 16 8:58 PM — Aug 31 8:58 PM, Wright, Weather by CustomWeather, © 2016

Note: Actual official high and low records may vary slightly from our data, if they occured in-between our weather recording intervals... More about our weather records

Advertising

Wright Weather History for the Previous 24 Hours

Scroll right to see more
 ConditionsComfort  
Time TempWeatherWind HumidityBarometerVisibility
8:58 PM
Wed, Aug 31
84 °FMostly cloudy.8 mph78%29.82 "Hg10 mi
7:58 PM86 °FClear.8 mph65%29.80 "Hg10 mi
6:58 PM87 °FPartly sunny.10 mph61%29.78 "Hg10 mi
5:58 PM89 °FPartly sunny.10 mph55%29.78 "Hg10 mi
4:58 PM90 °FPartly sunny.13 mph54%29.79 "Hg10 mi
3:58 PM92 °FPassing clouds.12 mph50%29.79 "Hg10 mi
2:58 PM92 °FScattered clouds.15 mph49%29.80 "Hg10 mi
1:58 PM90 °FBroken clouds.10 mph52%29.82 "Hg10 mi
12:58 PM89 °FPartly sunny.14 mph52%29.85 "Hg10 mi
11:58 AM87 °FPartly sunny.13 mph57%29.86 "Hg10 mi
10:58 AM87 °FSunny.10 mph55%29.88 "Hg10 mi
9:58 AM86 °FPassing clouds.8 mph62%29.88 "Hg10 mi
8:58 AM82 °FSunny.10 mph68%29.88 "Hg10 mi
7:58 AM78 °FSunny.12 mph77%29.87 "Hg10 mi
6:58 AM75 °FSunny.8 mph87%29.87 "Hg10 mi
5:58 AM75 °FClear.7 mph85%29.87 "Hg10 mi
4:58 AM75 °FClear.8 mph86%29.87 "Hg10 mi
3:58 AM77 °FClear.6 mph79%29.87 "Hg10 mi
2:58 AM79 °FClear.10 mph75%29.88 "Hg10 mi
1:58 AM80 °FClear.12 mph72%29.88 "Hg10 mi
12:58 AM81 °FClear.8 mph69%29.88 "Hg10 mi
11:58 PM
Tue, Aug 30
81 °FClear.5 mph68%29.88 "Hg10 mi
10:58 PM81 °FClear.6 mph67%29.88 "Hg10 mi
Weather by CustomWeather, © 2016

See weather overviewHow to use our weather pages